Change the Weather History Date:

Tuesday, February 25, 2014

  Actual Average Record
Temperature  
Mean Temperature 34 °F 40 °F  
Max Temperature 37 °F 49 °F 66 °F (1905)
Min Temperature 30 °F 32 °F 11 °F (2011)
Degree Days  
Heating Degree Days 31 25  
Month to date heating degree days 770 664  
Since 1 July heating degree days 4079 3783  
Cooling Degree Days 0 0  
Month to date cooling degree days 0 0  
Year to date cooling degree days 0 0  
Moisture  
Dew Point 28 °F    
Average Humidity 78    
Maximum Humidity 85    
Minimum Humidity 70    
Precipitation  
Precipitation 0.04 in 0.03 in 0.47 in (1907)
Month to date precipitation 1.19 0.69  
Year to date precipitation 2.24 1.77  
Snow  
Snow 0.60 in 0.00 in 3.90 in (1917)
Month to date snowfall 13.4 1.9  
Since 1 July snowfall 15.9 9.6  
Snow Depth 1.00 in    
Sea Level Pressure  
Sea Level Pressure 30.28 in    
Wind  
Wind Speed 3 mph (SW)    
Max Wind Speed 8 mph    
Max Gust Speed 9 mph    
Visibility 8 miles    
Events Snow    
T = Trace of Precipitation, MM = Missing Value Source: NWS Daily Summary

Daily Weather History Graph

Daily Weather History Graph

Search for Another Location

Airport or City:

Trip Planner

Search our weather history database for the weather conditions in past years. The results will help you decide how hot, cold, wet, or windy it might be!

Date:

Astronomy

Feb. 25, 2014 Rise Set
Actual Time 6:34 AM PST 5:28 PM PST
Civil Twilight 6:03 AM PST 5:58 PM PST
Nautical Twilight 5:29 AM PST 6:33 PM PST
Astronomical Twilight 4:54 AM PST 7:08 PM PST
Moon 3:43 AM PST (2/25) 1:30 PM PST (2/25)
Length of Visible Light 11h 55m
Length of Day
10h 54m
Waning Crescent, 17% of the Moon is Illuminated
Feb 25
Waning Crescent
Mar 1
New
Mar 8
First Quarter
Mar 16
Full
Mar 23
Last Quarter

Hourly Weather History & Observations

Time (PST) Temp. Windchill Dew Point Humidity Pressure Visibility Wind Dir Wind Speed Gust Speed Precip Events Conditions
12:09 AM 33.1 °F 30.0 °F 28.9 °F 85% 30.21 in 2.5 mi WSW 3.5 mph - 0.01 in Snow Light Snow
12:15 AM 33.1 °F 28.7 °F 28.9 °F 85% 30.21 in 3.0 mi West 4.6 mph - 0.01 in Snow Light Snow
12:56 AM 32.0 °F 28.7 °F 28.0 °F 85% 30.26 in 10.0 mi West 3.5 mph - 0.01 in   Overcast
1:18 AM 32.0 °F - 28.9 °F 88% 30.22 in 7.0 mi Calm Calm - 0.00 in Snow Light Snow
1:29 AM 32.0 °F 26.4 °F 28.0 °F 85% 30.22 in 9.0 mi West 5.8 mph - 0.00 in Snow Light Snow
1:56 AM 32.0 °F 27.5 °F 27.0 °F 82% 30.27 in 4.0 mi West 4.6 mph - 0.00 in Snow Light Snow
2:56 AM 30.9 °F 26.2 °F 27.0 °F 85% 30.27 in 5.0 mi WNW 4.6 mph - 0.00 in Snow Light Snow
3:11 AM 30.9 °F - 27.0 °F 85% 30.24 in 2.0 mi Calm Calm - 0.01 in Snow Light Snow
3:39 AM 30.9 °F 27.5 °F 27.0 °F 85% 30.25 in 3.0 mi West 3.5 mph - 0.01 in Snow Light Snow
3:56 AM 30.9 °F 27.5 °F 27.0 °F 85% 30.29 in 3.0 mi West 3.5 mph - 0.01 in Snow Light Snow
4:07 AM 30.9 °F 26.2 °F 27.0 °F 85% 30.26 in 2.5 mi West 4.6 mph - 0.01 in Snow Light Snow
4:26 AM 30.9 °F 26.2 °F 27.0 °F 85% 30.26 in 3.0 mi WSW 4.6 mph - 0.01 in Snow Light Snow
4:34 AM 30.9 °F 27.5 °F 27.0 °F 85% 30.26 in 3.0 mi SSW 3.5 mph - 0.01 in Snow Light Snow
4:56 AM 30.9 °F 27.5 °F 27.0 °F 85% 30.31 in 4.0 mi SW 3.5 mph - 0.02 in Snow Light Snow
5:52 AM 30.2 °F - 26.6 °F 86% 30.27 in 10.0 mi Calm Calm - 0.00 in   Overcast
5:56 AM 30.0 °F 26.5 °F 26.1 °F 85% 30.32 in 10.0 mi South 3.5 mph - 0.00 in   Overcast
6:56 AM 30.0 °F 26.5 °F 26.1 °F 85% 30.33 in 10.0 mi SW 3.5 mph - N/A   Overcast
7:52 AM 30.2 °F - 26.6 °F 86% 30.30 in 10.0 mi Calm Calm - N/A   Overcast
7:56 AM 30.9 °F - 27.0 °F 85% 30.35 in 10.0 mi Calm Calm - N/A   Overcast
8:33 AM 30.9 °F - 26.1 °F 82% 30.31 in 10.0 mi Calm Calm - N/A   Overcast
8:56 AM 32.0 °F - 26.1 °F 79% 30.36 in 10.0 mi Calm Calm - N/A   Overcast
9:03 AM 30.9 °F - 26.1 °F 82% 30.31 in 10.0 mi Calm Calm - N/A   Overcast
9:17 AM 32.0 °F - 27.0 °F 82% 30.32 in 10.0 mi Calm Calm - N/A   Overcast
9:56 AM 32.0 °F - 27.0 °F 82% 30.36 in 10.0 mi Calm Calm - N/A   Mostly Cloudy
10:24 AM 33.1 °F - 27.0 °F 78% 30.31 in 10.0 mi Calm Calm - N/A   Mostly Cloudy
10:56 AM 33.1 °F 28.7 °F 27.0 °F 78% 30.36 in 10.0 mi South 4.6 mph - N/A   Overcast
11:41 AM 33.1 °F 28.7 °F 28.0 °F 82% 30.31 in 10.0 mi SSW 4.6 mph - N/A   Overcast
11:56 AM 34.0 °F 29.8 °F 28.0 °F 79% 30.35 in 10.0 mi South 4.6 mph - N/A   Overcast
12:25 PM 35.1 °F 31.0 °F 28.0 °F 76% 30.29 in 10.0 mi WSW 4.6 mph - N/A   Overcast
12:56 PM 35.1 °F 32.2 °F 28.0 °F 76% 30.32 in 10.0 mi WSW 3.5 mph - N/A   Overcast
1:21 PM 36.0 °F 33.3 °F 28.0 °F 73% 30.27 in 10.0 mi West 3.5 mph - N/A   Overcast
1:56 PM 36.0 °F - 28.0 °F 73% 30.30 in 10.0 mi Calm Calm - N/A   Overcast
2:37 PM 36.0 °F 30.3 °F 28.0 °F 73% 30.25 in 10.0 mi SW 6.9 mph - N/A   Overcast
2:47 PM 37.0 °F 33.3 °F 28.0 °F 70% 30.25 in 10.0 mi SW 4.6 mph - N/A   Overcast
2:56 PM 36.0 °F 32.1 °F 28.0 °F 73% 30.30 in 10.0 mi SSW 4.6 mph - N/A   Overcast
3:56 PM 37.0 °F 32.4 °F 28.0 °F 70% 30.28 in 10.0 mi SSW 5.8 mph - N/A   Overcast
4:56 PM 36.0 °F 30.3 °F 28.0 °F 73% 30.27 in 10.0 mi SW 6.9 mph - N/A   Overcast
5:56 PM 36.0 °F 32.1 °F 28.9 °F 76% 30.26 in 10.0 mi South 4.6 mph - N/A   Overcast
6:56 PM 36.0 °F 33.3 °F 28.9 °F 76% 30.26 in 10.0 mi SW 3.5 mph - N/A   Overcast
7:56 PM 36.0 °F 33.3 °F 28.9 °F 76% 30.25 in 10.0 mi South 3.5 mph - N/A   Overcast
8:56 PM 36.0 °F 33.3 °F 28.9 °F 76% 30.25 in 10.0 mi SSE 3.5 mph - N/A   Overcast
9:56 PM 36.0 °F - 28.9 °F 76% 30.25 in 10.0 mi Calm Calm - N/A   Overcast
10:56 PM 36.0 °F - 28.9 °F 76% 30.23 in 10.0 mi Calm Calm - N/A   Overcast
11:56 PM 36.0 °F - 30.0 °F 79% 30.23 in 10.0 mi Calm Calm - N/A   Overcast